Saint Bonnet de Bellac- Haute Vienne - France
Donnes mto: samedi, 28/04/2012
Date Horaire Temp. E. Hum. E. P.atmo. Pluie Vent Direction Direction Ensoleilleme Solaire P. de rose Temp au vent Rafales
28/04/2012 00:00 10,3 C 93 % 1008,6 hPa 0,0 mm 0,0 km/h (0 Bft) N-NE 22 0 min 0 W/m 9,2 C 10,3 C 0,0 km/h (0 Bft)
28/04/2012 00:10 10,3 C 93 % 1008,5 hPa 0,0 mm 1,8 km/h (1 Bft) N-NE 22 0 min 0 W/m 9,2 C 10,3 C 1,8 km/h (1 Bft)
28/04/2012 00:20 10,3 C 93 % 1008,1 hPa 0,0 mm 2,5 km/h (1 Bft) N-NE 22 0 min 0 W/m 9,2 C 10,3 C 4,7 km/h (1 Bft)
28/04/2012 00:30 10,3 C 93 % 1008,2 hPa 0,1 mm 1,8 km/h (1 Bft) N-NE 22 0 min 0 W/m 9,2 C 10,3 C 4,3 km/h (1 Bft)
28/04/2012 00:40 10,3 C 93 % 1007,6 hPa 0,0 mm 1,4 km/h (1 Bft) N-NE 22 0 min 0 W/m 9,2 C 10,3 C 4,3 km/h (1 Bft)
28/04/2012 00:50 10,3 C 93 % 1008,0 hPa 0,0 mm 0,0 km/h (0 Bft) N-NE 22 0 min 0 W/m 9,2 C 10,3 C 0,0 km/h (0 Bft)
28/04/2012 01:00 10,3 C 93 % 1008,0 hPa 0,0 mm 0,0 km/h (0 Bft) N 360 0 min 0 W/m 9,2 C 10,3 C 0,0 km/h (0 Bft)
28/04/2012 01:10 10,3 C 93 % 1008,0 hPa 0,0 mm 0,0 km/h (0 Bft) N 360 0 min 0 W/m 9,2 C 10,3 C 0,0 km/h (0 Bft)
28/04/2012 01:20 10,3 C 93 % 1007,9 hPa 0,0 mm 0,0 km/h (0 Bft) N-NE 22 0 min 0 W/m 9,2 C 10,3 C 0,0 km/h (0 Bft)
28/04/2012 01:30 10,3 C 94 % 1008,1 hPa 0,0 mm 0,4 km/h (0 Bft) N-NE 22 0 min 0 W/m 9,4 C 10,3 C 0,4 km/h (0 Bft)
28/04/2012 01:40 10,3 C 94 % 1008,0 hPa 0,0 mm 0,0 km/h (0 Bft) N-NE 22 0 min 0 W/m 9,4 C 10,3 C 0,0 km/h (0 Bft)
28/04/2012 01:50 10,3 C 93 % 1008,0 hPa 0,0 mm 0,0 km/h (0 Bft) N 360 0 min 0 W/m 9,2 C 10,3 C 0,0 km/h (0 Bft)
28/04/2012 02:00 10,3 C 94 % 1008,1 hPa 0,0 mm 0,0 km/h (0 Bft) N-NE 22 0 min 0 W/m 9,4 C 10,3 C 0,0 km/h (0 Bft)
28/04/2012 02:10 10,3 C 94 % 1008,1 hPa 0,0 mm 0,0 km/h (0 Bft) N-NE 22 0 min 0 W/m 9,4 C 10,3 C 1,4 km/h (1 Bft)
28/04/2012 02:20 10,3 C 94 % 1008,1 hPa 0,0 mm 0,0 km/h (0 Bft) N-NE 22 0 min 0 W/m 9,4 C 10,3 C 0,0 km/h (0 Bft)
28/04/2012 02:30 10,3 C 94 % 1008,3 hPa 0,0 mm 0,0 km/h (0 Bft) N-NO 337 0 min 0 W/m 9,4 C 10,3 C 0,0 km/h (0 Bft)
28/04/2012 02:40 10,3 C 94 % 1008,5 hPa 0,0 mm 0,0 km/h (0 Bft) N-NO 337 0 min 0 W/m 9,4 C 10,3 C 0,0 km/h (0 Bft)
28/04/2012 02:50 10,3 C 94 % 1009,0 hPa 0,0 mm 1,8 km/h (1 Bft) O-NO 292 0 min 0 W/m 9,4 C 10,3 C 6,5 km/h (2 Bft)
28/04/2012 03:02 10,3 C 94 % 1009,1 hPa 0,0 mm 2,2 km/h (1 Bft) NO 315 0 min 0 W/m 9,4 C 10,3 C 3,6 km/h (1 Bft)
28/04/2012 03:10 10,2 C 94 % 1009,1 hPa 0,0 mm 2,5 km/h (1 Bft) O 270 0 min 0 W/m 9,3 C 10,2 C 6,1 km/h (2 Bft)
28/04/2012 03:20 10,1 C 94 % 1009,2 hPa 0,1 mm 1,8 km/h (1 Bft) O 270 0 min 0 W/m 9,2 C 10,1 C 4,3 km/h (1 Bft)
28/04/2012 03:30 10,0 C 94 % 1009,4 hPa 0,0 mm 5,8 km/h (2 Bft) O-NO 292 0 min 0 W/m 9,1 C 9,5 C 17,6 km/h (3 Bft)
28/04/2012 03:40 9,8 C 94 % 1009,3 hPa 0,0 mm 5,4 km/h (2 Bft) NO 315 0 min 0 W/m 8,9 C 9,4 C 9,7 km/h (2 Bft)
28/04/2012 03:50 9,6 C 94 % 1009,4 hPa 0,0 mm 3,6 km/h (1 Bft) NO 315 0 min 0 W/m 8,7 C 9,6 C 3,6 km/h (1 Bft)
28/04/2012 04:00 9,5 C 94 % 1009,3 hPa 0,0 mm 0,7 km/h (0 Bft) O-NO 292 0 min 0 W/m 8,6 C 9,5 C 0,7 km/h (0 Bft)
28/04/2012 04:10 9,4 C 94 % 1009,2 hPa 0,0 mm 1,1 km/h (1 Bft) N-NO 337 0 min 0 W/m 8,5 C 9,4 C 4,0 km/h (1 Bft)
28/04/2012 04:20 9,3 C 94 % 1009,3 hPa 0,0 mm 0,4 km/h (0 Bft) N-NO 337 0 min 0 W/m 8,4 C 9,3 C 2,9 km/h (1 Bft)
28/04/2012 04:30 9,2 C 94 % 1009,0 hPa 0,0 mm 0,0 km/h (0 Bft) N 360 0 min 0 W/m 8,3 C 9,2 C 3,2 km/h (1 Bft)
28/04/2012 04:40 9,2 C 94 % 1009,4 hPa 0,0 mm 0,0 km/h (0 Bft) N 360 0 min 0 W/m 8,3 C 9,2 C 1,4 km/h (1 Bft)
28/04/2012 04:50 9,1 C 94 % 1009,5 hPa 0,0 mm 0,0 km/h (0 Bft) N-NE 22 0 min 0 W/m 8,2 C 9,1 C 0,0 km/h (0 Bft)
28/04/2012 05:00 9,1 C 94 % 1009,9 hPa 0,0 mm 0,0 km/h (0 Bft) N-NE 22 0 min 0 W/m 8,2 C 9,1 C 0,0 km/h (0 Bft)
28/04/2012 05:10 9,1 C 94 % 1010,0 hPa 0,1 mm 0,0 km/h (0 Bft) N-NE 22 0 min 0 W/m 8,2 C 9,1 C 0,0 km/h (0 Bft)
28/04/2012 05:20 9,1 C 94 % 1009,5 hPa 0,2 mm 0,0 km/h (0 Bft) N-NE 22 0 min 0 W/m 8,2 C 9,1 C 0,0 km/h (0 Bft)
28/04/2012 05:30 9,1 C 94 % 1009,4 hPa 0,0 mm 0,0 km/h (0 Bft) N-NE 22 0 min 0 W/m 8,2 C 9,1 C 0,0 km/h (0 Bft)
28/04/2012 05:40 9,1 C 94 % 1009,0 hPa 0,0 mm 0,0 km/h (0 Bft) N-NE 22 0 min 0 W/m 8,2 C 9,1 C 1,4 km/h (1 Bft)
28/04/2012 05:50 9,1 C 94 % 1009,0 hPa 0,1 mm 0,0 km/h (0 Bft) N-NE 22 0 min 0 W/m 8,2 C 9,1 C 0,0 km/h (0 Bft)
28/04/2012 06:00 9,1 C 94 % 1008,8 hPa 0,0 mm 0,0 km/h (0 Bft) N-NE 22 0 min 0 W/m 8,2 C 9,1 C 0,0 km/h (0 Bft)
28/04/2012 06:10 9,0 C 94 % 1008,7 hPa 0,1 mm 0,4 km/h (0 Bft) E 90 0 min 0 W/m 8,1 C 9,0 C 0,4 km/h (0 Bft)
28/04/2012 06:20 8,9 C 94 % 1008,5 hPa 0,2 mm 0,0 km/h (0 Bft) E-SE 112 0 min 0 W/m 8,0 C 8,9 C 0,0 km/h (0 Bft)
28/04/2012 06:30 9,0 C 94 % 1008,5 hPa 0,0 mm 0,0 km/h (0 Bft) E 90 0 min 0 W/m 8,1 C 9,0 C 0,0 km/h (0 Bft)
28/04/2012 06:40 9,0 C 94 % 1008,3 hPa 0,0 mm 0,4 km/h (0 Bft) E-NE 67 0 min 0 W/m 8,1 C 9,0 C 3,2 km/h (1 Bft)
28/04/2012 06:50 9,0 C 94 % 1008,2 hPa 0,0 mm 0,4 km/h (0 Bft) E-NE 67 0 min 0 W/m 8,1 C 9,0 C 3,6 km/h (1 Bft)
28/04/2012 07:00 9,1 C 94 % 1008,5 hPa 0,0 mm 5,0 km/h (1 Bft) E-SE 112 2 min 0 W/m 8,2 C 8,7 C 8,6 km/h (2 Bft)
28/04/2012 07:10 9,1 C 94 % 1008,5 hPa 0,0 mm 0,0 km/h (0 Bft) E-SE 112 2 min 0 W/m 8,2 C 9,1 C 0,0 km/h (0 Bft)
28/04/2012 07:20 9,1 C 94 % 1008,7 hPa 0,0 mm 0,0 km/h (0 Bft) SE 135 2 min 0 W/m 8,2 C 9,1 C 1,4 km/h (1 Bft)
28/04/2012 07:30 9,1 C 94 % 1008,5 hPa 0,0 mm 0,0 km/h (0 Bft) SE 135 2 min 0 W/m 8,2 C 9,1 C 0,0 km/h (0 Bft)
28/04/2012 07:40 9,1 C 94 % 1008,3 hPa 0,0 mm 0,0 km/h (0 Bft) SE 135 2 min 0 W/m 8,2 C 9,1 C 0,0 km/h (0 Bft)
28/04/2012 07:50 9,2 C 94 % 1008,4 hPa 0,0 mm 0,0 km/h (0 Bft) SE 135 2 min 0 W/m 8,3 C 9,2 C 0,0 km/h (0 Bft)
28/04/2012 08:00 9,3 C 94 % 1008,7 hPa 0,0 mm 0,0 km/h (0 Bft) SE 135 2 min 0 W/m 8,4 C 9,3 C 0,0 km/h (0 Bft)
28/04/2012 08:10 9,3 C 94 % 1008,4 hPa 0,0 mm 2,9 km/h (1 Bft) E-NE 67 2 min 0 W/m 8,4 C 9,3 C 4,7 km/h (1 Bft)
28/04/2012 08:20 9,4 C 94 % 1008,2 hPa 0,0 mm 2,5 km/h (1 Bft) NE 45 2 min 0 W/m 8,5 C 9,4 C 2,5 km/h (1 Bft)
28/04/2012 08:30 9,5 C 94 % 1008,0 hPa 0,0 mm 2,5 km/h (1 Bft) NE 45 2 min 0 W/m 8,6 C 9,5 C 3,2 km/h (1 Bft)
28/04/2012 08:40 9,7 C 94 % 1008,2 hPa 0,0 mm 0,0 km/h (0 Bft) E-NE 67 2 min 0 W/m 8,8 C 9,7 C 0,0 km/h (0 Bft)
28/04/2012 08:50 9,8 C 94 % 1008,1 hPa 0,0 mm 0,4 km/h (0 Bft) NE 45 2 min 0 W/m 8,9 C 9,8 C 3,2 km/h (1 Bft)
28/04/2012 09:00 9,9 C 94 % 1008,3 hPa 0,0 mm 0,0 km/h (0 Bft) NE 45 2 min 0 W/m 9,0 C 9,9 C 0,0 km/h (0 Bft)
28/04/2012 09:10 10,1 C 94 % 1008,0 hPa 0,0 mm 0,7 km/h (0 Bft) NE 45 2 min 0 W/m 9,2 C 10,1 C 3,2 km/h (1 Bft)
28/04/2012 09:20 10,2 C 94 % 1008,1 hPa 0,0 mm 0,0 km/h (0 Bft) NE 45 2 min 0 W/m 9,3 C 10,2 C 0,0 km/h (0 Bft)
28/04/2012 09:30 10,4 C 95 % 1008,0 hPa 0,0 mm 2,2 km/h (1 Bft) E-NE 67 2 min 0 W/m 9,6 C 10,4 C 3,6 km/h (1 Bft)
28/04/2012 09:40 10,6 C 95 % 1007,8 hPa 0,0 mm 3,6 km/h (1 Bft) N-NE 22 2 min 0 W/m 9,8 C 10,6 C 10,4 km/h (2 Bft)
28/04/2012 09:50 10,6 C 95 % 1007,6 hPa 0,0 mm 3,2 km/h (1 Bft) E-SE 112 2 min 0 W/m 9,8 C 10,6 C 7,2 km/h (2 Bft)
28/04/2012 10:00 10,8 C 95 % 1007,6 hPa 0,0 mm 0,0 km/h (0 Bft) NE 45 2 min 0 W/m 10,0 C 10,8 C 0,0 km/h (0 Bft)
28/04/2012 10:10 10,8 C 95 % 1007,8 hPa 0,0 mm 0,0 km/h (0 Bft) NE 45 2 min 0 W/m 10,0 C 10,8 C 0,0 km/h (0 Bft)
28/04/2012 10:20 10,9 C 95 % 1007,9 hPa 0,0 mm 0,0 km/h (0 Bft) NE 45 2 min 0 W/m 10,1 C 10,9 C 0,0 km/h (0 Bft)
28/04/2012 10:30 11,1 C 95 % 1007,8 hPa 0,0 mm 0,0 km/h (0 Bft) N 360 2 min 0 W/m 10,3 C 11,1 C 0,0 km/h (0 Bft)
28/04/2012 10:40 11,3 C 95 % 1007,8 hPa 0,0 mm 1,4 km/h (1 Bft) N-NO 337 2 min 0 W/m 10,5 C 11,3 C 1,4 km/h (1 Bft)
28/04/2012 10:50 11,4 C 95 % 1007,8 hPa 0,0 mm 1,1 km/h (1 Bft) N-NO 337 2 min 0 W/m 10,6 C 11,4 C 4,3 km/h (1 Bft)
28/04/2012 11:00 11,6 C 95 % 1007,7 hPa 0,0 mm 1,4 km/h (1 Bft) N-NO 337 2 min 0 W/m 10,8 C 11,6 C 4,3 km/h (1 Bft)
28/04/2012 11:10 11,6 C 95 % 1007,7 hPa 0,0 mm 0,0 km/h (0 Bft) N-NO 337 2 min 0 W/m 10,8 C 11,6 C 0,0 km/h (0 Bft)
28/04/2012 11:20 11,5 C 95 % 1007,9 hPa 0,0 mm 0,0 km/h (0 Bft) N-NE 22 2 min 0 W/m 10,7 C 11,5 C 0,0 km/h (0 Bft)
28/04/2012 11:30 11,4 C 94 % 1007,8 hPa 0,0 mm 1,4 km/h (1 Bft) N-NE 22 2 min 0 W/m 10,5 C 11,4 C 1,4 km/h (1 Bft)
28/04/2012 11:40 11,4 C 94 % 1007,8 hPa 0,0 mm 0,0 km/h (0 Bft) N-NE 22 2 min 0 W/m 10,5 C 11,4 C 3,2 km/h (1 Bft)
28/04/2012 11:50 11,3 C 94 % 1007,5 hPa 0,0 mm 1,1 km/h (1 Bft) N 360 2 min 0 W/m 10,4 C 11,3 C 6,1 km/h (2 Bft)
28/04/2012 12:00 11,3 C 94 % 1007,2 hPa 0,0 mm 2,5 km/h (1 Bft) N 360 2 min 0 W/m 10,4 C 11,3 C 4,3 km/h (1 Bft)
28/04/2012 12:10 11,2 C 94 % 1007,1 hPa 0,1 mm 4,0 km/h (1 Bft) N 360 2 min 0 W/m 10,3 C 11,2 C 6,5 km/h (2 Bft)
28/04/2012 12:20 11,1 C 94 % 1006,7 hPa 0,0 mm 6,1 km/h (2 Bft) E-NE 67 2 min 0 W/m 10,2 C 11,1 C 10,1 km/h (2 Bft)
28/04/2012 12:30 11,1 C 94 % 1006,6 hPa 0,0 mm 1,4 km/h (1 Bft) NE 45 2 min 0 W/m 10,2 C 11,1 C 2,9 km/h (1 Bft)
28/04/2012 12:40 11,1 C 94 % 1006,6 hPa 0,0 mm 6,1 km/h (2 Bft) N-NE 22 2 min 0 W/m 10,2 C 11,1 C 8,3 km/h (2 Bft)
28/04/2012 12:50 11,2 C 94 % 1006,6 hPa 0,0 mm 6,5 km/h (2 Bft) N-NE 22 2 min 0 W/m 10,3 C 11,2 C 7,9 km/h (2 Bft)
28/04/2012 13:00 11,2 C 94 % 1006,3 hPa 0,0 mm 4,0 km/h (1 Bft) N-NE 22 2 min 0 W/m 10,3 C 11,2 C 4,0 km/h (1 Bft)
28/04/2012 13:10 11,2 C 94 % 1006,2 hPa 0,0 mm 0,7 km/h (0 Bft) N-NE 22 2 min 0 W/m 10,3 C 11,2 C 4,0 km/h (1 Bft)
28/04/2012 13:20 11,3 C 94 % 1006,0 hPa 0,0 mm 1,4 km/h (1 Bft) N-NE 22 2 min 0 W/m 10,4 C 11,3 C 4,0 km/h (1 Bft)
28/04/2012 13:30 11,4 C 94 % 1006,0 hPa 0,0 mm 6,8 km/h (2 Bft) N 360 2 min 0 W/m 10,5 C 11,4 C 7,9 km/h (2 Bft)
28/04/2012 13:40 11,4 C 94 % 1006,0 hPa 0,0 mm 2,9 km/h (1 Bft) N-NE 22 2 min 0 W/m 10,5 C 11,4 C 8,6 km/h (2 Bft)
28/04/2012 13:50 11,4 C 94 % 1006,2 hPa 0,0 mm 8,3 km/h (2 Bft) N 360 2 min 0 W/m 10,5 C 11,4 C 11,5 km/h (2 Bft)
28/04/2012 14:00 11,4 C 94 % 1005,7 hPa 0,0 mm 2,2 km/h (1 Bft) N-NE 22 2 min 0 W/m 10,5 C 11,4 C 6,5 km/h (2 Bft)
28/04/2012 14:10 11,4 C 94 % 1005,8 hPa 0,1 mm 4,3 km/h (1 Bft) E-NE 67 2 min 0 W/m 10,5 C 11,4 C 8,6 km/h (2 Bft)
28/04/2012 14:20 11,4 C 94 % 1005,8 hPa 0,0 mm 4,0 km/h (1 Bft) N 360 2 min 0 W/m 10,5 C 11,4 C 7,9 km/h (2 Bft)
28/04/2012 14:30 11,3 C 94 % 1005,5 hPa 0,2 mm 3,6 km/h (1 Bft) N-NE 22 2 min 0 W/m 10,4 C 11,3 C 3,6 km/h (1 Bft)
28/04/2012 14:40 11,2 C 94 % 1004,9 hPa 0,1 mm 0,4 km/h (0 Bft) N-NE 22 2 min 0 W/m 10,3 C 11,2 C 4,0 km/h (1 Bft)
28/04/2012 14:50 11,3 C 94 % 1004,9 hPa 0,0 mm 3,2 km/h (1 Bft) N-NE 22 2 min 0 W/m 10,4 C 11,3 C 7,2 km/h (2 Bft)
28/04/2012 15:00 11,4 C 94 % 1004,4 hPa 0,0 mm 4,7 km/h (1 Bft) N-NO 337 2 min 0 W/m 10,5 C 11,4 C 4,7 km/h (1 Bft)
28/04/2012 15:10 11,6 C 94 % 1004,3 hPa 0,0 mm 4,7 km/h (1 Bft) N-NE 22 2 min 0 W/m 10,7 C 11,6 C 4,7 km/h (1 Bft)
28/04/2012 15:20 11,7 C 94 % 1004,3 hPa 0,0 mm 1,8 km/h (1 Bft) N-NE 22 2 min 0 W/m 10,8 C 11,7 C 4,3 km/h (1 Bft)
28/04/2012 15:30 11,8 C 94 % 1004,2 hPa 0,1 mm 3,6 km/h (1 Bft) N-NE 22 2 min 0 W/m 10,9 C 11,8 C 7,2 km/h (2 Bft)
28/04/2012 15:40 11,8 C 94 % 1004,0 hPa 0,0 mm 1,4 km/h (1 Bft) NE 45 2 min 0 W/m 10,9 C 11,8 C 4,0 km/h (1 Bft)
28/04/2012 15:50 11,9 C 94 % 1003,7 hPa 0,0 mm 2,9 km/h (1 Bft) N-NE 22 2 min 0 W/m 11,0 C 11,9 C 2,9 km/h (1 Bft)
28/04/2012 16:00 12,1 C 95 % 1003,4 hPa 0,0 mm 5,0 km/h (1 Bft) N 360 2 min 0 W/m 11,3 C 12,1 C 11,2 km/h (2 Bft)
28/04/2012 16:10 12,1 C 95 % 1003,2 hPa 0,0 mm 6,5 km/h (2 Bft) N 360 2 min 0 W/m 11,3 C 12,1 C 10,4 km/h (2 Bft)
28/04/2012 16:20 12,2 C 95 % 1003,4 hPa 0,1 mm 2,5 km/h (1 Bft) N-NE 22 2 min 0 W/m 11,4 C 12,2 C 2,5 km/h (1 Bft)
28/04/2012 16:30 12,2 C 95 % 1002,9 hPa 0,0 mm 10,1 km/h (2 Bft) NE 45 2 min 0 W/m 11,4 C 12,2 C 14,4 km/h (3 Bft)
28/04/2012 16:40 12,3 C 95 % 1002,9 hPa 0,0 mm 0,0 km/h (0 Bft) N-NE 22 2 min 0 W/m 11,5 C 12,3 C 3,6 km/h (1 Bft)
28/04/2012 16:50 12,3 C 95 % 1002,5 hPa 0,1 mm 7,2 km/h (2 Bft) N-NE 22 2 min 0 W/m 11,5 C 12,3 C 7,6 km/h (2 Bft)
28/04/2012 17:00 12,4 C 95 % 1002,7 hPa 0,0 mm 7,2 km/h (2 Bft) N 360 2 min 0 W/m 11,6 C 12,4 C 7,2 km/h (2 Bft)
_ Min-Heure 06:20 01:50 16:50 - 16:40 - - - - 06:20 07:00 11:20
Minimum _ 8,9 C 93 % 1002,5 hPa - 0,0 km/h (0 Bft) - - - - 8,0 C 8,7 C 0,0 km/h (0 Bft)
_ Max-Heure 17:00 17:00 05:10 14:30 16:30 - - 17:00 17:00 17:00 17:00 03:30
Maximum _ 12,4 C 95 % 1010,0 hPa 0,2 mm 10,1 km/h
NE (2 Bft)
- - 2 min 0 W/m 11,6 C 12,4 C 17,6 km/h
O-NO (3 Bft)
Moyenne _ 10,5 C 94 % 1007,4 hPa #1,8 mm 1,9 km/h (1 Bft) N-NE - #2:02 h 0 W/m 9,5 C 10,4 C 3,5 km/h (1 Bft)
Saint Bonnet de Bellac- Haute Vienne - France